Weather History for KBNO - May, 2014

Change the Weather History Date:

Sunday, May 25, 2014

  Actual Average Record
Temperature  
Mean Temperature 60 °F 54 °F  
Max Temperature 79 °F 69 °F 90 °F (1992)
Min Temperature 40 °F 39 °F 23 °F (1975)
Degree Days  
Heating Degree Days 5 12  
Month to date heating degree days 322 364  
Since 1 July heating degree days 7029 7404  
Cooling Degree Days 0 0  
Month to date cooling degree days 0 0  
Year to date cooling degree days 0 0  
Growing Degree Days 9 (Base 50)    
Moisture  
Dew Point 36 °F    
Average Humidity 50    
Maximum Humidity 79    
Minimum Humidity 21    
Precipitation  
Precipitation 0.00 in 0.04 in 0.49 in (2011)
Month to date precipitation 0.38 0.97  
Year to date precipitation 4.93 5.20  
Sea Level Pressure  
Sea Level Pressure 29.97 in    
Wind  
Wind Speed 7 mph (WSW)    
Max Wind Speed 18 mph    
Max Gust Speed 23 mph    
Visibility 10 miles    
Events      
T = Trace of Precipitation, MM = Missing Value Source: NWS Daily Summary

Daily Weather History Graph

Daily Weather History Graph

Search for Another Location

Airport or City:

Trip Planner

Search our weather history database for the weather conditions in past years. The results will help you decide how hot, cold, wet, or windy it might be!

Date:

Astronomy

May. 25, 2014 Rise Set
Actual Time 5:21 AM PDT 8:24 PM PDT
Civil Twilight 4:47 AM PDT 8:58 PM PDT
Nautical Twilight 4:03 AM PDT 9:42 PM PDT
Astronomical Twilight 3:11 AM PDT 10:35 PM PDT
Moon 3:35 AM PDT (5/25) 5:24 PM PDT (5/25)
Length of Visible Light 16h 11m
Length of Day
15h 02m
Waning Crescent, 10% of the Moon is Illuminated
May 25
Waning Crescent
May 28
New
Jun 5
First Quarter
Jun 12
Full
Jun 19
Last Quarter

Hourly Weather History & Observations

Time (PDT) Temp. Windchill Dew Point Humidity Pressure Visibility Wind Dir Wind Speed Gust Speed Precip Events Conditions
12:53 AM 50.0 °F - 37.9 °F 63% 30.05 in 10.0 mi West 5.8 mph - N/A   Clear
2:53 AM 46.0 °F 42.5 °F 36.0 °F 68% 30.04 in 10.0 mi West 6.9 mph - N/A   Clear
3:53 AM 46.0 °F - 35.1 °F 66% 30.04 in 10.0 mi Calm Calm - N/A   Clear
4:53 AM 43.0 °F 38.8 °F 34.0 °F 71% 30.04 in 10.0 mi NW 6.9 mph - N/A   Clear
5:53 AM 39.9 °F - 33.1 °F 77% 30.05 in 10.0 mi Calm Calm - N/A   Clear
6:53 AM 51.1 °F - 37.0 °F 59% 30.04 in 10.0 mi West 3.5 mph - N/A   Clear
8:53 AM 59.0 °F - 37.9 °F 46% 30.06 in 10.0 mi Calm Calm - N/A   Clear
9:53 AM 64.0 °F - 35.1 °F 34% 30.05 in 10.0 mi SSW 5.8 mph - N/A   Clear
10:53 AM 66.0 °F - 34.0 °F 30% 30.02 in 10.0 mi Variable 4.6 mph - N/A   Clear
11:53 AM 71.1 °F - 35.1 °F 27% 30.00 in 10.0 mi SSW 10.4 mph - N/A   Clear
12:53 PM 72.0 °F - 36.0 °F 27% 29.98 in 10.0 mi SSW 9.2 mph - N/A   Clear
1:53 PM 75.0 °F - 36.0 °F 24% 29.97 in 10.0 mi North - - N/A   Clear
2:53 PM 78.1 °F - 37.9 °F 24% 29.94 in 10.0 mi South 11.5 mph - N/A   Clear
3:53 PM 77.0 °F - 36.0 °F 23% 29.92 in 10.0 mi SW 13.8 mph 20.7 mph N/A   Clear
4:53 PM 79.0 °F - 36.0 °F 21% 29.90 in 10.0 mi West 8.1 mph - N/A   Clear
5:53 PM 78.1 °F - 36.0 °F 22% 29.89 in 10.0 mi WSW 6.9 mph - N/A   Clear
6:53 PM 77.0 °F - 37.0 °F 24% 29.86 in 10.0 mi West 6.9 mph - N/A   Clear
7:53 PM 72.0 °F - 32.0 °F 23% 29.87 in 10.0 mi WSW 12.7 mph - N/A   Clear
8:53 PM 63.0 °F - 36.0 °F 37% 29.89 in 10.0 mi WSW 11.5 mph - N/A   Clear
9:53 PM 57.0 °F - 37.9 °F 49% 29.93 in 10.0 mi West 8.1 mph - N/A   Clear
10:53 PM 59.0 °F - 37.9 °F 46% 29.92 in 10.0 mi West 12.7 mph - N/A   Clear
11:53 PM 55.9 °F - 37.0 °F 49% 29.93 in 10.0 mi West 10.4 mph - N/A   Clear